Change the Weather History Date:

Monday, September 23, 2013

  Actual Average (KALS) Record (KALS)
Temperature  
Mean Temperature 49 °F 52 °F  
Max Temperature 57 °F 71 °F 84 °F (1944)
Min Temperature 39 °F 34 °F 19 °F (1946)
Degree Days  
Heating Degree Days 16 13  
Month to date heating degree days 201  
Since 1 July heating degree days 330  
Cooling Degree Days 0 0  
Month to date cooling degree days 0  
Year to date cooling degree days 51  
Moisture  
Dew Point 33 °F    
Average Humidity 60    
Maximum Humidity 93    
Minimum Humidity 31    
Precipitation  
Precipitation 0.00 in 0.03 in 0.81 in (1941)
Month to date precipitation 0.75  
Year to date precipitation 5.70  
Snow  
Snow 0.00 in 0.00 in 0.00 in (2002)
Month to date snowfall 0.0  
Since 1 July snowfall 0.0  
Since 1 September snowfall 0.0  
Snow Depth -    
Sea Level Pressure  
Sea Level Pressure 30.05 in    
Wind  
Wind Speed 13 mph (NW)    
Max Wind Speed 28 mph    
Max Gust Speed 44 mph    
Visibility 10 miles    
Events      
T = Trace of Precipitation, MM = Missing Value Source: NWS Daily Summary

Daily Weather History Graph

Daily Weather History Graph

Search for Another Location

Airport or City:

Trip Planner

Search our weather history database for the weather conditions in past years. The results will help you decide how hot, cold, wet, or windy it might be!

Date:

Astronomy

Sep. 23, 2013 Rise Set
Actual Time 6:53 AM MDT 6:59 PM MDT
Civil Twilight 6:27 AM MDT 7:25 PM MDT
Nautical Twilight 5:56 AM MDT 7:56 PM MDT
Astronomical Twilight 5:25 AM MDT 8:27 PM MDT
Moon 9:38 PM MDT (9/23) 11:11 AM MDT (9/23)
Length of Visible Light 12h 58m
Length of Day
12h 06m
Waning Gibbous, 81% of the Moon is Illuminated
Sep 23
Waning Gibbous
Sep 26
Last Quarter
Oct 4
New
Oct 11
First Quarter
Oct 18
Full

Hourly Weather History & Observations

Time (MDT) Temp. Windchill Dew Point Humidity Pressure Visibility Wind Dir Wind Speed Gust Speed Precip Events Conditions
12:12 AM 41.0 °F 38.0 °F 37.4 °F 87% 29.86 in 10.0 mi ESE 4.6 mph - N/A   Overcast
12:32 AM 41.0 °F 38.0 °F 39.2 °F 93% 29.86 in 10.0 mi ESE 4.6 mph - N/A   Overcast
12:52 AM 41.0 °F - 37.4 °F 87% 29.86 in 10.0 mi Calm Calm - N/A   Overcast
1:12 AM 41.0 °F - 37.4 °F 87% 29.85 in 10.0 mi Calm Calm - N/A   Overcast
1:32 AM 41.0 °F - 39.2 °F 93% 29.84 in 10.0 mi Calm Calm - N/A   Overcast
1:51 AM 41.0 °F 36.4 °F 37.4 °F 87% 29.84 in 10.0 mi NW 6.9 mph - N/A   Overcast
2:12 AM 41.0 °F 39.0 °F 37.4 °F 87% 29.85 in 10.0 mi WNW 3.5 mph - N/A   Mostly Cloudy
2:32 AM 41.0 °F 39.0 °F 35.6 °F 81% 29.85 in 10.0 mi WNW 3.5 mph - N/A   Overcast
2:51 AM 41.0 °F 34.7 °F 35.6 °F 81% 29.84 in 10.0 mi NW 10.4 mph 18.4 mph N/A   Mostly Cloudy
3:11 AM 41.0 °F 36.4 °F 35.6 °F 81% 29.84 in 10.0 mi NNW 6.9 mph - N/A   Mostly Cloudy
3:32 AM 41.0 °F 36.4 °F 35.6 °F 81% 29.85 in 10.0 mi NW 6.9 mph - N/A   Overcast
3:52 AM 42.8 °F 34.8 °F 35.6 °F 76% 29.84 in 10.0 mi NW 17.3 mph 23.0 mph N/A   Overcast
4:12 AM 42.8 °F 36.6 °F 35.6 °F 76% 29.85 in 10.0 mi NW 11.5 mph 25.3 mph N/A   Overcast
4:32 AM 42.8 °F 35.4 °F 33.8 °F 70% 29.85 in 10.0 mi NW 15.0 mph 21.9 mph N/A   Overcast
4:52 AM 42.8 °F 34.0 °F 33.8 °F 70% 29.85 in 10.0 mi NW 20.7 mph 29.9 mph N/A   Overcast
5:11 AM 42.8 °F 34.8 °F 33.8 °F 70% 29.86 in 10.0 mi NNW 17.3 mph 25.3 mph N/A   Mostly Cloudy
5:32 AM 42.8 °F 35.8 °F 33.8 °F 70% 29.87 in 10.0 mi NNW 13.8 mph 21.9 mph N/A   Mostly Cloudy
5:51 AM 42.8 °F 35.8 °F 33.8 °F 70% 29.88 in 10.0 mi NNW 13.8 mph 20.7 mph N/A   Mostly Cloudy
6:12 AM 42.8 °F 35.8 °F 33.8 °F 70% 29.88 in 10.0 mi NNW 13.8 mph 19.6 mph N/A   Overcast
6:32 AM 42.8 °F 35.8 °F 33.8 °F 70% 29.89 in 10.0 mi NNW 13.8 mph 18.4 mph N/A   Mostly Cloudy
6:52 AM 44.6 °F 37.4 °F 33.8 °F 66% 29.90 in 10.0 mi NW 16.1 mph 26.5 mph N/A   Overcast
7:12 AM 44.6 °F 36.4 °F 33.8 °F 66% 29.91 in 10.0 mi NW 20.7 mph 24.2 mph N/A   Overcast
7:32 AM 44.6 °F 38.1 °F 33.8 °F 66% 29.92 in 10.0 mi NW 13.8 mph 24.2 mph N/A   Overcast
7:51 AM 44.6 °F 38.4 °F 33.8 °F 66% 29.93 in 10.0 mi NW 12.7 mph 18.4 mph N/A   Mostly Cloudy
8:12 AM 44.6 °F 36.6 °F 33.8 °F 66% 29.94 in 10.0 mi NW 19.6 mph 26.5 mph N/A   Mostly Cloudy
8:31 AM 46.4 °F 39.0 °F 33.8 °F 62% 29.95 in 10.0 mi NW 19.6 mph 29.9 mph N/A   Overcast
8:52 AM 46.4 °F 38.3 °F 33.8 °F 62% 29.97 in 10.0 mi NW 23.0 mph 28.8 mph N/A   Overcast
9:12 AM 46.4 °F 37.7 °F 32.0 °F 57% 29.97 in 10.0 mi NW 26.5 mph 35.7 mph N/A   Mostly Cloudy
9:32 AM 48.2 °F - 32.0 °F 54% 29.99 in 10.0 mi NW 26.5 mph 34.5 mph N/A   Overcast
9:52 AM 46.4 °F 38.5 °F 32.0 °F 57% 30.00 in 10.0 mi NW 21.9 mph 31.1 mph N/A   Overcast
10:12 AM 46.4 °F 38.3 °F 32.0 °F 57% 30.01 in 10.0 mi NNW 23.0 mph 29.9 mph N/A   Overcast
10:32 AM 46.4 °F 38.1 °F 32.0 °F 57% 30.03 in 10.0 mi NNW 24.2 mph 32.2 mph N/A   Overcast
10:52 AM 46.4 °F 38.1 °F 33.8 °F 62% 30.05 in 10.0 mi NNW 24.2 mph 31.1 mph N/A   Overcast
11:12 AM 48.2 °F - 35.6 °F 62% 30.05 in 10.0 mi NNW 25.3 mph 31.1 mph N/A   Mostly Cloudy
11:32 AM 48.2 °F - 32.0 °F 54% 30.05 in 10.0 mi NW 25.3 mph 33.4 mph N/A   Mostly Cloudy
11:52 AM 50.0 °F - 32.0 °F 50% 30.06 in 10.0 mi NNW 24.2 mph 33.4 mph N/A   Mostly Cloudy
12:12 PM 50.0 °F - 32.0 °F 50% 30.07 in 10.0 mi NNW 18.4 mph 29.9 mph N/A   Mostly Cloudy
12:32 PM 51.8 °F - 32.0 °F 47% 30.07 in 10.0 mi NW 27.6 mph 35.7 mph N/A   Mostly Cloudy
12:52 PM 51.8 °F - 30.2 °F 44% 30.07 in 10.0 mi NNW 21.9 mph 34.5 mph N/A   Overcast
1:12 PM 51.8 °F - 30.2 °F 44% 30.08 in 10.0 mi NNW 24.2 mph 41.4 mph N/A   Overcast
1:32 PM 53.6 °F - 32.0 °F 44% 30.08 in 10.0 mi NW 25.3 mph 36.8 mph N/A   Mostly Cloudy
1:52 PM 55.4 °F - 30.2 °F 38% 30.08 in 10.0 mi NNW 23.0 mph 36.8 mph N/A   Mostly Cloudy
2:12 PM 55.4 °F - 30.2 °F 38% 30.09 in 10.0 mi NW 27.6 mph 36.8 mph N/A   Scattered Clouds
2:32 PM 55.4 °F - 32.0 °F 41% 30.09 in 10.0 mi NW 26.5 mph 34.5 mph N/A   Scattered Clouds
2:51 PM 53.6 °F - 28.4 °F 38% 30.10 in 10.0 mi NNW 23.0 mph 33.4 mph N/A   Clear
3:11 PM 55.4 °F - 30.2 °F 38% 30.10 in 10.0 mi NW 26.5 mph 33.4 mph N/A   Clear
3:31 PM 55.4 °F - 30.2 °F 38% 30.11 in 10.0 mi NNW 25.3 mph 35.7 mph N/A   Clear
3:52 PM 57.2 °F - 26.6 °F 31% 30.12 in 10.0 mi NNW 25.3 mph 43.7 mph N/A   Clear
4:12 PM 55.4 °F - 28.4 °F 36% 30.13 in 10.0 mi NW 27.6 mph 34.5 mph N/A   Clear
4:32 PM 55.4 °F - 30.2 °F 38% 30.14 in 10.0 mi NW 23.0 mph 35.7 mph N/A   Clear
4:52 PM 55.4 °F - 30.2 °F 38% 30.15 in 10.0 mi NW 21.9 mph 32.2 mph N/A   Clear
5:12 PM 55.4 °F - 30.2 °F 38% 30.16 in 10.0 mi NW 25.3 mph 33.4 mph N/A   Clear
5:31 PM 55.4 °F - 28.4 °F 36% 30.17 in 10.0 mi NNW 19.6 mph 28.8 mph N/A   Clear
5:52 PM 53.6 °F - 32.0 °F 44% 30.18 in 10.0 mi NW 19.6 mph 27.6 mph N/A   Clear
6:12 PM 53.6 °F - 30.2 °F 41% 30.19 in 10.0 mi NW 16.1 mph 21.9 mph N/A   Clear
6:32 PM 51.8 °F - 30.2 °F 44% 30.21 in 10.0 mi NNW 16.1 mph 19.6 mph N/A   Clear
6:52 PM 50.0 °F - 28.4 °F 43% 30.21 in 10.0 mi NNW 12.7 mph 18.4 mph N/A   Clear
7:12 PM 48.2 °F - 30.2 °F 50% 30.22 in 10.0 mi NW 8.1 mph - N/A   Clear
7:32 PM 46.4 °F 41.9 °F 32.0 °F 57% 30.22 in 10.0 mi NNW 9.2 mph - N/A   Clear
7:52 PM 46.4 °F 41.5 °F 32.0 °F 57% 30.24 in 10.0 mi NNW 10.4 mph - N/A   Clear
8:11 PM 46.4 °F 39.8 °F 32.0 °F 57% 30.24 in 10.0 mi NNW 16.1 mph - N/A   Clear
8:32 PM 44.6 °F 36.9 °F 32.0 °F 61% 30.26 in 10.0 mi NW 18.4 mph - N/A   Clear
8:52 PM 44.6 °F 37.2 °F 33.8 °F 66% 30.27 in 10.0 mi NNW 17.3 mph - N/A   Clear
9:12 PM 46.4 °F 40.4 °F 32.0 °F 57% 30.28 in 10.0 mi NNW 13.8 mph - N/A   Clear
9:32 PM 44.6 °F 37.8 °F 32.0 °F 61% 30.28 in 10.0 mi NNW 15.0 mph - N/A   Clear
9:52 PM 44.6 °F 38.4 °F 32.0 °F 61% 30.29 in 10.0 mi NNW 12.7 mph - N/A   Clear
10:11 PM 42.8 °F 36.2 °F 32.0 °F 66% 30.30 in 10.0 mi NNW 12.7 mph - N/A   Clear
10:32 PM 41.0 °F 33.1 °F 32.0 °F 70% 30.31 in 10.0 mi NW 15.0 mph - N/A   Clear
10:52 PM 41.0 °F 33.9 °F 32.0 °F 70% 30.31 in 10.0 mi NW 12.7 mph - N/A   Clear
11:11 PM 41.0 °F 33.5 °F 32.0 °F 70% 30.31 in 10.0 mi NW 13.8 mph - N/A   Clear
11:31 PM 41.0 °F 33.5 °F 32.0 °F 70% 30.31 in 10.0 mi NW 13.8 mph - N/A   Clear
11:52 PM 39.2 °F 30.5 °F 32.0 °F 75% 30.31 in 10.0 mi NW 16.1 mph - N/A   Clear